Time,TemperatureF,DewpointF,PressureIn,WindDirection,WindDirectionDegrees,WindSpeedMPH,WindSpeedGustMPH,Humidity,HourlyPrecipIn,Conditions,Clouds,dailyrainin,SoftwareType,DateUTC
2013-07-29 00:02:00,63.0,62.0,30.06,SSW,210,1.0,8.0,97,0.22,,,2.00,,2013-07-29 05:02:00,
2013-07-29 00:12:00,63.0,62.0,30.06,SSW,210,1.0,8.0,97,0.22,,,2.00,,2013-07-29 05:12:00,
2013-07-29 00:22:00,63.0,62.0,30.06,SSW,210,1.0,8.0,97,0.22,,,2.00,,2013-07-29 05:22:00,
2013-07-29 00:53:00,63.0,62.0,30.04,ESE,122,2.0,10.0,97,0.07,,,2.07,,2013-07-29 05:53:00,
2013-07-29 01:02:00,63.0,62.0,30.04,SSW,210,2.0,12.0,96,0.03,,,2.07,,2013-07-29 06:02:00,
2013-07-29 01:12:00,63.0,62.0,30.04,SSW,210,2.0,12.0,96,0.03,,,2.07,,2013-07-29 06:12:00,
2013-07-29 01:22:00,63.0,62.0,30.04,SSW,210,2.0,12.0,96,0.03,,,2.07,,2013-07-29 06:22:00,
2013-07-29 01:32:00,64.0,63.0,30.07,West,276,0.0,8.0,97,0.00,,,2.07,,2013-07-29 06:32:00,
2013-07-29 01:43:00,64.0,63.0,30.07,West,276,0.0,8.0,97,0.00,,,2.07,,2013-07-29 06:43:00,
2013-07-29 01:52:00,64.0,63.0,30.07,North,360,0.0,1.0,97,0.04,,,2.11,,2013-07-29 06:52:00,
2013-07-29 02:01:00,64.0,63.0,30.06,East,86,0.0,3.0,97,0.05,,,2.12,,2013-07-29 07:01:00,
2013-07-29 02:02:00,64.0,63.0,30.07,SE,134,0.0,3.0,97,0.05,,,2.12,,2013-07-29 07:02:00,
2013-07-29 02:12:00,64.0,63.0,30.07,SE,134,0.0,3.0,97,0.05,,,2.12,,2013-07-29 07:12:00,
2013-07-29 02:22:00,64.0,63.0,30.06,East,86,0.0,3.0,97,0.05,,,2.12,,2013-07-29 07:22:00,
2013-07-29 02:33:00,64.0,63.0,30.06,East,86,0.0,3.0,97,0.05,,,2.12,,2013-07-29 07:33:00,
2013-07-29 02:43:00,64.0,63.0,30.06,East,86,0.0,3.0,97,0.05,,,2.12,,2013-07-29 07:43:00,
2013-07-29 02:53:00,64.0,63.0,30.06,East,86,0.0,3.0,97,0.05,,,2.12,,2013-07-29 07:53:00,
2013-07-29 03:52:00,63.0,62.0,30.05,SE,124,2.0,6.0,97,0.01,,,2.11,,2013-07-29 08:52:00,
2013-07-29 04:02:00,63.0,62.0,30.05,SE,124,2.0,6.0,97,0.01,,,2.11,,2013-07-29 09:02:00,
2013-07-29 04:12:00,63.0,62.0,30.05,SE,124,2.0,6.0,97,0.01,,,2.11,,2013-07-29 09:12:00,
2013-07-29 04:22:00,63.0,62.0,30.05,SSE,160,2.0,6.0,96,0.01,,,1.96,,2013-07-29 09:22:00,
2013-07-29 04:33:00,63.0,62.0,30.05,SSE,160,2.0,6.0,96,0.01,,,1.96,,2013-07-29 09:33:00,
2013-07-29 04:43:00,63.0,62.0,30.05,SSE,160,2.0,6.0,96,0.01,,,1.96,,2013-07-29 09:43:00,
2013-07-29 04:53:00,63.0,62.0,30.05,SE,141,2.0,2.0,95,0.00,,,1.79,,2013-07-29 09:53:00,
2013-07-29 05:02:00,63.0,62.0,30.05,SE,141,2.0,2.0,95,0.00,,,1.73,,2013-07-29 10:02:00,
2013-07-29 05:14:00,63.0,62.0,30.05,SE,141,2.0,2.0,95,0.00,,,1.73,,2013-07-29 10:14:00,
2013-07-29 05:24:00,63.0,62.0,30.05,SE,141,2.0,2.0,95,0.00,,,1.73,,2013-07-29 10:24:00,
2013-07-29 05:55:00,63.0,62.0,30.05,SE,141,2.0,2.0,95,0.00,,,1.62,,2013-07-29 10:55:00,
2013-07-29 06:04:00,63.0,62.0,30.05,SE,141,2.0,2.0,95,0.00,,,1.62,,2013-07-29 11:04:00,
2013-07-29 06:15:00,63.0,62.0,30.05,SE,141,2.0,2.0,95,0.00,,,1.62,,2013-07-29 11:15:00,
2013-07-29 06:25:00,63.0,62.0,30.04,SE,141,2.0,2.0,95,0.00,,,1.44,,2013-07-29 11:25:00,
2013-07-29 06:38:00,63.0,62.0,30.04,SE,141,2.0,2.0,95,0.00,,,1.38,,2013-07-29 11:38:00,
2013-07-29 06:58:00,63.0,62.0,30.04,SE,141,2.0,2.0,95,0.00,,,1.38,,2013-07-29 11:58:00,
2013-07-29 07:06:00,63.0,62.0,30.04,SE,141,2.0,2.0,95,0.00,,,1.36,,2013-07-29 12:06:00,
2013-07-29 07:14:00,63.0,62.0,30.04,SE,141,2.0,2.0,95,0.00,,,1.36,,2013-07-29 12:14:00,
2013-07-29 07:25:00,63.0,62.0,30.04,SE,141,2.0,2.0,95,0.00,,,1.36,,2013-07-29 12:25:00,
2013-07-29 07:35:00,63.0,62.0,30.04,SE,141,2.0,2.0,95,0.00,,,1.36,,2013-07-29 12:35:00,
2013-07-29 07:44:00,63.0,62.0,30.04,SE,141,2.0,2.0,95,0.00,,,1.36,,2013-07-29 12:44:00,
2013-07-29 07:58:00,63.0,62.0,30.03,SE,141,2.0,2.0,95,0.00,,,1.36,,2013-07-29 12:58:00,
2013-07-29 08:16:00,63.0,62.0,30.04,SE,141,2.0,2.0,95,0.00,,,1.36,,2013-07-29 13:16:00,
2013-07-29 08:35:00,64.0,62.0,30.04,South,169,0.0,4.0,94,0.01,,,1.37,,2013-07-29 13:35:00,
2013-07-29 08:43:00,64.0,62.0,30.04,South,169,0.0,4.0,94,0.01,,,1.37,,2013-07-29 13:43:00,
2013-07-29 08:57:00,64.0,62.0,30.04,South,169,0.0,4.0,94,0.01,,,1.37,,2013-07-29 13:57:00,
2013-07-29 09:12:00,65.0,63.0,30.04,ESE,122,0.0,5.0,94,0.02,,,1.31,,2013-07-29 14:12:00,
2013-07-29 09:27:00,65.0,64.0,30.04,SE,141,3.0,4.0,95,0.01,,,1.21,,2013-07-29 14:27:00,
2013-07-29 09:31:00,67.0,65.0,30.05,SE,134,0.0,3.0,94,0.01,,,1.17,,2013-07-29 14:31:00,
2013-07-29 09:35:00,66.0,65.0,30.05,SE,134,1.0,3.0,95,0.01,,,1.17,,2013-07-29 14:35:00,
2013-07-29 09:44:00,66.0,65.0,30.05,SE,134,1.0,3.0,95,0.01,,,1.17,,2013-07-29 14:44:00,
2013-07-29 09:57:00,67.0,65.0,30.05,SE,134,0.0,3.0,94,0.01,,,1.17,,2013-07-29 14:57:00,
2013-07-29 10:13:00,67.0,65.0,30.05,SE,134,0.0,3.0,94,0.01,,,1.17,,2013-07-29 15:13:00,
2013-07-29 10:24:00,67.0,65.0,30.05,SE,134,0.0,3.0,94,0.01,,,1.17,,2013-07-29 15:24:00,
2013-07-29 10:55:00,71.0,68.0,30.03,ESE,104,4.0,6.0,90,0.00,,,1.17,,2013-07-29 15:55:00,
2013-07-29 11:06:00,71.0,68.0,30.03,ESE,104,4.0,6.0,90,0.00,,,1.17,,2013-07-29 16:06:00,
2013-07-29 11:13:00,71.0,68.0,30.03,ESE,104,4.0,6.0,90,0.00,,,1.17,,2013-07-29 16:13:00,
2013-07-29 11:23:00,71.0,68.0,30.03,ESE,104,4.0,6.0,90,0.00,,,1.17,,2013-07-29 16:23:00,
2013-07-29 11:36:00,71.0,68.0,30.04,East,97,0.0,1.0,91,0.01,,,1.18,,2013-07-29 16:36:00,
2013-07-29 11:47:00,71.0,68.0,30.04,East,97,0.0,1.0,91,0.01,,,1.18,,2013-07-29 16:47:00,
2013-07-29 11:57:00,70.0,68.0,30.04,East,98,0.0,1.0,93,0.01,,,1.18,,2013-07-29 16:57:00,
2013-07-29 12:07:00,70.0,68.0,30.03,SE,145,0.0,2.0,94,0.06,,,1.23,,2013-07-29 17:07:00,
2013-07-29 12:13:00,70.0,68.0,30.03,SE,145,0.0,2.0,94,0.06,,,1.23,,2013-07-29 17:13:00,
2013-07-29 12:23:00,70.0,68.0,30.03,SE,145,0.0,2.0,94,0.06,,,1.23,,2013-07-29 17:23:00,
2013-07-29 12:38:00,70.0,69.0,30.03,SSE,164,0.0,1.0,96,0.14,,,1.32,,2013-07-29 17:38:00,
2013-07-29 12:44:00,70.0,69.0,30.03,SSE,164,0.0,1.0,96,0.14,,,1.32,,2013-07-29 17:44:00,
2013-07-29 12:59:00,69.0,68.0,30.01,SE,142,1.0,3.0,97,0.15,,,1.33,,2013-07-29 17:59:00,
2013-07-29 13:06:00,70.0,69.0,30.01,SSE,166,0.0,5.0,97,0.10,,,1.33,,2013-07-29 18:06:00,
2013-07-29 13:13:00,70.0,69.0,30.01,SSE,166,0.0,5.0,97,0.10,,,1.33,,2013-07-29 18:13:00,
2013-07-29 13:25:00,70.0,69.0,30.01,SE,128,0.0,1.0,97,0.12,,,1.41,,2013-07-29 18:25:00,
2013-07-29 13:34:00,70.0,69.0,30.00,SE,145,0.0,4.0,98,0.15,,,1.47,,2013-07-29 18:34:00,
2013-07-29 13:44:00,70.0,69.0,30.00,SE,145,0.0,4.0,98,0.15,,,1.47,,2013-07-29 18:44:00,
2013-07-29 13:58:00,70.0,69.0,30.00,SSE,160,0.0,5.0,97,0.14,,,1.46,,2013-07-29 18:58:00,
2013-07-29 14:15:00,70.0,69.0,30.00,SE,142,2.0,6.0,98,0.15,,,1.46,,2013-07-29 19:15:00,
2013-07-29 14:25:00,70.0,69.0,30.00,SE,142,2.0,6.0,98,0.15,,,1.46,,2013-07-29 19:25:00,
2013-07-29 14:36:00,70.0,69.0,30.00,SE,142,2.0,6.0,98,0.15,,,1.46,,2013-07-29 19:36:00,
2013-07-29 14:45:00,70.0,69.0,30.00,SE,142,2.0,6.0,98,0.15,,,1.46,,2013-07-29 19:45:00,
2013-07-29 15:49:00,71.0,70.0,29.99,ENE,58,3.0,4.0,98,0.14,,,1.52,,2013-07-29 20:49:00,
2013-07-29 15:58:00,71.0,70.0,29.99,ENE,61,3.0,4.0,98,0.00,,,1.52,,2013-07-29 20:58:00,
2013-07-29 16:04:00,71.0,70.0,29.99,ENE,61,3.0,4.0,98,0.00,,,1.52,,2013-07-29 21:04:00,
2013-07-29 16:24:00,70.0,69.0,29.98,East,79,3.0,5.0,98,0.05,,,1.55,,2013-07-29 21:24:00,
2013-07-29 16:34:00,70.0,69.0,29.98,NE,35,2.0,7.0,98,0.05,,,1.54,,2013-07-29 21:34:00,
2013-07-29 16:49:00,70.0,69.0,29.98,NE,35,2.0,7.0,98,0.05,,,1.54,,2013-07-29 21:49:00,
2013-07-29 17:00:00,70.0,69.0,29.98,ENE,70,5.0,6.0,98,0.05,,,1.52,,2013-07-29 22:00:00,
2013-07-29 17:01:00,70.0,69.0,29.97,East,79,2.0,7.0,98,0.00,,,1.46,,2013-07-29 22:01:00,
2013-07-29 17:14:00,70.0,69.0,29.98,ENE,70,5.0,6.0,98,0.05,,,1.52,,2013-07-29 22:14:00,
2013-07-29 17:35:00,70.0,69.0,29.97,East,79,2.0,7.0,98,0.00,,,1.46,,2013-07-29 22:35:00,
2013-07-29 17:56:00,70.0,69.0,29.97,East,79,2.0,7.0,98,0.00,,,1.46,,2013-07-29 22:56:00,
2013-07-29 18:27:00,70.0,69.0,29.96,ENE,65,4.0,9.0,98,0.02,,,1.47,,2013-07-29 23:27:00,
2013-07-29 18:35:00,70.0,69.0,29.98,ENE,58,2.0,7.0,97,0.02,,,1.47,,2013-07-29 23:35:00,
2013-07-29 18:57:00,70.0,69.0,29.99,ENE,75,1.0,7.0,98,0.02,,,1.46,,2013-07-29 23:57:00,
2013-07-29 19:04:00,69.0,68.0,30.00,ESE,105,2.0,10.0,98,0.00,,,1.45,,2013-07-30 00:04:00,
2013-07-29 19:24:00,69.0,68.0,30.00,ESE,105,2.0,10.0,98,0.00,,,1.45,,2013-07-30 00:24:00,
2013-07-29 19:34:00,69.0,68.0,29.99,East,101,0.0,10.0,98,0.00,,,1.43,,2013-07-30 00:34:00,
2013-07-29 19:46:00,69.0,68.0,29.99,East,101,0.0,10.0,98,0.00,,,1.43,,2013-07-30 00:46:00,
2013-07-29 19:56:00,69.0,68.0,30.00,ENE,60,2.0,6.0,98,0.00,,,1.41,,2013-07-30 00:56:00,
2013-07-29 20:05:00,69.0,68.0,29.98,North,358,2.0,6.0,98,0.00,,,1.40,,2013-07-30 01:05:00,
2013-07-29 20:16:00,69.0,68.0,29.98,North,358,2.0,6.0,98,0.00,,,1.40,,2013-07-30 01:16:00,
2013-07-29 20:23:00,69.0,68.0,29.99,NE,52,4.0,7.0,98,0.00,,,1.40,,2013-07-30 01:23:00,
2013-07-29 20:35:00,69.0,68.0,29.99,NE,53,3.0,7.0,98,0.00,,,1.37,,2013-07-30 01:35:00,
2013-07-29 20:44:00,69.0,68.0,29.99,NE,53,3.0,7.0,98,0.00,,,1.37,,2013-07-30 01:44:00,
2013-07-29 20:59:00,69.0,68.0,29.99,NE,53,3.0,7.0,98,0.00,,,1.37,,2013-07-30 01:59:00,
2013-07-29 21:13:00,69.0,68.0,30.00,NNE,14,1.0,5.0,98,0.00,,,1.13,,2013-07-30 02:13:00,
2013-07-29 21:23:00,69.0,68.0,30.00,ESE,110,1.0,5.0,98,0.00,,,1.12,,2013-07-30 02:23:00,
2013-07-29 21:45:00,69.0,68.0,30.00,ESE,110,1.0,5.0,98,0.00,,,1.12,,2013-07-30 02:45:00,
2013-07-29 21:56:00,69.0,68.0,30.00,ESE,110,1.0,5.0,98,0.00,,,1.12,,2013-07-30 02:56:00,
2013-07-29 23:03:00,69.0,69.0,30.03,ENE,73,1.0,4.0,99,0.00,,,0.81,,2013-07-30 04:03:00,
2013-07-29 23:12:00,69.0,69.0,30.03,ENE,73,1.0,4.0,99,0.00,,,0.81,,2013-07-30 04:12:00,
2013-07-29 23:23:00,69.0,69.0,30.03,ENE,73,1.0,4.0,99,0.00,,,0.81,,2013-07-30 04:23:00,
2013-07-29 23:33:00,69.0,69.0,30.03,ENE,73,1.0,4.0,99,0.00,,,0.81,,2013-07-30 04:33:00,
2013-07-29 23:43:00,69.0,68.0,30.02,NNE,29,1.0,5.0,98,0.00,,,0.70,,2013-07-30 04:43:00,
2013-07-29 23:53:00,68.0,68.0,30.02,ENE,78,0.0,4.0,99,0.00,,,0.67,,2013-07-30 04:53:00,